EN

Hourly Weather Nakhon Ratchasima

Today, 28 November, Saturday

Time Temperature Precipitation Wind Pressure Humidity
00:00 +22°C° 0 mm 3 mps 743 mmHg 76%
01:00 +22°C° 0 mm 3 mps 743 mmHg 82%
02:00 +21°C° 0 mm 3 mps 742 mmHg 82%
03:00 +21°C° 0 mm 3 mps 742 mmHg 83%
04:00 +21°C° 0 mm 3 mps 742 mmHg 83%
05:00 +21°C° 0 mm 3 mps 742 mmHg 83%
06:00 +21°C° 0 mm 3 mps 743 mmHg 84%
07:00 +21°C° 0 mm 2 mps 743 mmHg 87%
08:00 +24°C° 0 mm 3 mps 743 mmHg 81%
09:00 +25°C° 0 mm 5 mps 743 mmHg 74%
10:00 +27°C° 0 mm 6 mps 744 mmHg 68%
11:00 +28°C° 0 mm 6 mps 743 mmHg 65%
12:00 +29°C° 0 mm 6 mps 742 mmHg 63%
13:00 +30°C° 0 mm 6 mps 742 mmHg 60%
14:00 +30°C° 0 mm 6 mps 741 mmHg 60%
15:00 +30°C° 0 mm 5 mps 740 mmHg 61%
16:00 +30°C° 0 mm 5 mps 740 mmHg 61%
17:00 +29°C° 0 mm 4 mps 740 mmHg 64%
18:00 +28°C° 0 mm 4 mps 741 mmHg 66%
19:00 +27°C° 0 mm 4 mps 741 mmHg 68%
20:00 +26°C° 0 mm 4 mps 742 mmHg 68%
21:00 +26°C° 0 mm 5 mps 742 mmHg 68%
22:00 +26°C° 0 mm 5 mps 742 mmHg 68%
23:00 +25°C° 0 mm 5 mps 742 mmHg 68%

Tomorrow, 29 November, Sunday

Time Temperature Precipitation Wind Pressure Humidity
00:00 +25°C° 0 mm 5 mps 742 mmHg 69%
01:00 +23°C° 0 mm 5 mps 742 mmHg 70%
02:00 +23°C° 0 mm 4 mps 742 mmHg 70%
03:00 +23°C° 0 mm 4 mps 742 mmHg 69%
04:00 +23°C° 0 mm 4 mps 742 mmHg 69%
05:00 +23°C° 0 mm 4 mps 742 mmHg 69%
06:00 +23°C° 0 mm 4 mps 742 mmHg 69%
07:00 +22°C° 0 mm 4 mps 743 mmHg 69%
08:00 +23°C° 0 mm 5 mps 743 mmHg 66%
09:00 +26°C° 0 mm 6 mps 743 mmHg 63%
10:00 +27°C° 0 mm 7 mps 744 mmHg 61%
11:00 +27°C° 0 mm 7 mps 743 mmHg 60%
12:00 +28°C° 0 mm 6 mps 743 mmHg 59%
13:00 +28°C° 0 mm 6 mps 742 mmHg 58%
14:00 +28°C° 0 mm 6 mps 741 mmHg 58%
15:00 +29°C° 0 mm 5 mps 741 mmHg 58%
16:00 +29°C° 0 mm 5 mps 740 mmHg 58%
17:00 +28°C° 0 mm 5 mps 741 mmHg 61%
18:00 +27°C° 0 mm 4 mps 741 mmHg 64%
19:00 +25°C° 0 mm 3 mps 742 mmHg 66%
20:00 +25°C° 0 mm 3 mps 742 mmHg 67%
21:00 +23°C° 0 mm 4 mps 743 mmHg 67%
22:00 +22°C° 0 mm 4 mps 743 mmHg 68%
23:00 +22°C° 0 mm 4 mps 743 mmHg 69%

Day after tomorrow, 30 November, Monday

Time Temperature Precipitation Wind Pressure Humidity
00:00 +21°C° 0 mm 4 mps 743 mmHg 71%
01:00 +21°C° 0 mm 4 mps 743 mmHg 72%
02:00 +20°C° 0 mm 3 mps 742 mmHg 73%
03:00 +20°C° 0 mm 3 mps 742 mmHg 73%
04:00 +20°C° 0 mm 3 mps 742 mmHg 74%
05:00 +20°C° 0 mm 3 mps 742 mmHg 74%
06:00 +20°C° 0 mm 3 mps 743 mmHg 74%
07:00 +20°C° 0 mm 3 mps 743 mmHg 75%
08:00 +22°C° 0 mm 4 mps 743 mmHg 70%
09:00 +23°C° 0 mm 5 mps 744 mmHg 66%
10:00 +24°C° 0 mm 6 mps 744 mmHg 62%
11:00 +26°C° 0 mm 6 mps 743 mmHg 60%
12:00 +27°C° 0 mm 6 mps 743 mmHg 58%
13:00 +28°C° 0 mm 6 mps 742 mmHg 57%
14:00 +28°C° 0 mm 6 mps 741 mmHg 57%
15:00 +29°C° 0 mm 5 mps 741 mmHg 57%
16:00 +29°C° 0 mm 5 mps 740 mmHg 58%
17:00 +28°C° 0 mm 5 mps 741 mmHg 60%
18:00 +27°C° 0 mm 4 mps 742 mmHg 62%
19:00 +26°C° 0 mm 4 mps 742 mmHg 64%
20:00 +26°C° 0 mm 4 mps 742 mmHg 65%
21:00 +26°C° 0 mm 4 mps 743 mmHg 67%
22:00 +25°C° 0 mm 4 mps 743 mmHg 68%
23:00 +25°C° 0 mm 3 mps 743 mmHg 67%

1 December, Tuesday

Time Temperature Precipitation Wind Pressure Humidity
00:00 +24°C° 0 mm 3 mps 743 mmHg 66%
01:00 +24°C° 0 mm 3 mps 743 mmHg 65%
02:00 +24°C° 0 mm 3 mps 742 mmHg 66%
03:00 +22°C° 0 mm 3 mps 742 mmHg 66%
04:00 +22°C° 0 mm 4 mps 742 mmHg 67%
05:00 +22°C° 0 mm 4 mps 743 mmHg 68%
06:00 +22°C° 0 mm 4 mps 743 mmHg 69%
07:00 +22°C° 0 mm 3 mps 744 mmHg 70%
08:00 +23°C° 0 mm 4 mps 744 mmHg 68%
09:00 +23°C° 0 mm 5 mps 744 mmHg 66%
10:00 +25°C° 0 mm 5 mps 744 mmHg 64%
11:00 +24°C° 0 mm 6 mps 744 mmHg 64%
12:00 +26°C° 0 mm 6 mps 743 mmHg 64%
13:00 +26°C° 0 mm 6 mps 742 mmHg 63%
14:00 +26°C° 0 mm 6 mps 742 mmHg 63%
15:00 +26°C° 0 mm 5 mps 741 mmHg 63%
16:00 +26°C° 0 mm 5 mps 741 mmHg 63%
17:00 +25°C° 0 mm 4 mps 741 mmHg 65%
18:00 +25°C° 0 mm 2 mps 741 mmHg 68%
19:00 +24°C° 0 mm 1 mps 741 mmHg 70%
20:00 +24°C° 0 mm 1 mps 742 mmHg 71%
21:00 +24°C° 0 mm 1 mps 742 mmHg 72%
22:00 +24°C° 0 mm 1 mps 742 mmHg 73%
23:00 +24°C° 0 mm 1 mps 742 mmHg 74%

2 December, Wednesday

Time Temperature Precipitation Wind Pressure Humidity
00:00 +24°C° 0 mm 2 mps 741 mmHg 74%
01:00 +24°C° 0 mm 2 mps 741 mmHg 75%
02:00 +23°C° 0 mm 2 mps 741 mmHg 75%
03:00 +23°C° 0 mm 2 mps 741 mmHg 75%
04:00 +23°C° 0 mm 2 mps 741 mmHg 75%
05:00 +23°C° 0 mm 2 mps 741 mmHg 76%
06:00 +23°C° 0 mm 2 mps 742 mmHg 78%
07:00 +23°C° 0 mm 2 mps 742 mmHg 79%
08:00 +24°C° 0 mm 3 mps 742 mmHg 77%
09:00 +25°C° 0 mm 4 mps 743 mmHg 74%
10:00 +26°C° 0 mm 4 mps 743 mmHg 72%
11:00 +27°C° 0 mm 4 mps 742 mmHg 67%
12:00 +29°C° 0 mm 5 mps 741 mmHg 63%
13:00 +30°C° 0 mm 5 mps 741 mmHg 59%
14:00 +30°C° 0 mm 4 mps 740 mmHg 58%
15:00 +30°C° 0 mm 4 mps 740 mmHg 58%
16:00 +30°C° 0 mm 4 mps 739 mmHg 58%
17:00 +29°C° 0 mm 4 mps 740 mmHg 62%
18:00 +28°C° 0 mm 3 mps 740 mmHg 66%
19:00 +26°C° 0 mm 3 mps 740 mmHg 70%
20:00 +26°C° 0 mm 3 mps 741 mmHg 70%
21:00 +26°C° 0 mm 3 mps 741 mmHg 71%
22:00 +25°C° 0 mm 3 mps 741 mmHg 72%
23:00 +25°C° 0 mm 3 mps 741 mmHg 73%

3 December, Thursday

Time Temperature Precipitation Wind Pressure Humidity
00:00 +24°C° 0 mm 3 mps 741 mmHg 74%
01:00 +22°C° 0 mm 3 mps 741 mmHg 75%
02:00 +22°C° 0 mm 3 mps 741 mmHg 77%
03:00 +21°C° 0 mm 3 mps 740 mmHg 80%
04:00 +21°C° 0 mm 3 mps 740 mmHg 82%
05:00 +21°C° 0 mm 3 mps 741 mmHg 82%
06:00 +21°C° 0 mm 3 mps 741 mmHg 81%
07:00 +21°C° 0 mm 3 mps 741 mmHg 81%
08:00 +22°C° 0 mm 4 mps 742 mmHg 76%
09:00 +23°C° 0 mm 4 mps 742 mmHg 72%
10:00 +26°C° 0 mm 5 mps 742 mmHg 67%
11:00 +27°C° 0 mm 5 mps 742 mmHg 64%
12:00 +28°C° 0 mm 5 mps 741 mmHg 61%
13:00 +28°C° 0 mm 4 mps 741 mmHg 58%
14:00 +29°C° 0 mm 5 mps 740 mmHg 58%
15:00 +29°C° 0 mm 5 mps 740 mmHg 57%
16:00 +30°C° 0 mm 5 mps 739 mmHg 56%
17:00 +28°C° 0 mm 5 mps 740 mmHg 60%
18:00 +27°C° 0 mm 4 mps 740 mmHg 64%
19:00 +26°C° 0 mm 3 mps 741 mmHg 69%
20:00 +25°C° 0 mm 4 mps 741 mmHg 69%
21:00 +25°C° 0 mm 4 mps 742 mmHg 69%
22:00 +23°C° 0 mm 4 mps 742 mmHg 70%
23:00 +23°C° 0 mm 4 mps 742 mmHg 71%
Show more

We Need Your Consent

Meteoprog and our Service Providers may store and access personal data such as cookies, device identifiers or other similar technologies on your device and process such data to personalise content and ads, as well as provide social media features and to analyse the traffic.

  • Store and/or access information on your device

    Cookies, device identifiers or other information can be stored or accessed on your device for the purposes indicated above.

  • Personalised ads and content, ad and content measurement, audience insights, and products development

    Ads and content can be personalised based on a profile. More data can be added to better personalise ads and content. Ad and content performance can be measured. Insights about the audience who saw the ads and content can be derived. Such data can be used to develop or improve user’s experience, systems and software.

By clicking ‘I Agree’ you will allow the use of indicated cookies, device identifiers, web beacons or other similar technologies. Your settings can be changed in the browser on your device.

For certain purposes, legitimate interests may be relied on, rather than consent. You can read more about this in our Privacy and Cookie Policy.